"Pseudo-MPEC" for C0E7105

Created 2022 Nov 27 13:22:05 UT using Find_Orb

Click here for an explanation of pseudo-MPECs

 
 Astrometry: 
     C0E7105*HC2022 11 23dk/TAstrometryr%KNKNB;keMFY0F2v7:VIk.@\qOTredacted;vV00
     C0E7105 HC2022 11 23T(Gp1Cebl%Kg%7cR?click?Tv0l3E!cy]dInbhJ$[')`ncx1YPQyV00
     C0E7105 HC2022 11 23^M/UCVBiW`B:Jlc2Z37;:tb]t=*KBR%QO[tr8Z;-^-pqA)b]x69`V00
     C0E7105 HC2022 11 23NmZkw_ask@KuEG:YbG=Iqhk!P(SAA9o4N:eg!^3uc.wbUlArm9AeV00
     C0E7105 KC2022 11 23.49016 07 16 13.64 +33 16 56.6    ~BNCq 22.0 RoNEOCP291
     C0E7105 KC2022 11 23.50138 07 16 14.43 +33 17 04.3    ~BNCq 22.2 RoNEOCP291
     C0E7105 KC2022 11 23.51258 07 16 15.15 +33 17 11.8    ~BNCq 22.4 RoNEOCP291
     C0E7105 KC2022 11 24.35433 07 17 18.61 +33 27 03.8    ~BOA7 22.0 GVNEOCP291
     C0E7105 KC2022 11 24.36707 07 17 19.37 +33 27 13.0    ~BOA7 22.2 GVNEOCP291
     C0E7105 KC2022 11 24.37988 07 17 20.16 +33 27 22.4    ~BOA7 22.4 GVNEOCP291
     C0E7105 KC2022 11 26.31223907 19 28.852+33 49 39.72   ~BQ87 21.83GVNEOCPV06
     C0E7105 KC2022 11 26.31780107 19 29.158+33 49 43.90   ~BQ87 22.40GVNEOCPV06
     C0E7105 KC2022 11 26.32336207 19 29.464+33 49 48.04   ~BQ87 22.03GVNEOCPV06
     C0E7105 KC2022 11 26.32892607 19 29.773+33 49 51.96   ~BQ87 22.25GVNEOCPV06
     C0E7105 KC2022 11 26'f@2HsSi2HW:bv(=[;8x#ja2\(*Oun#F45o-B8@jp4,F#'1oZh_AH21
     C0E7105 KC2022 11 26!u#_Ky??@Tki;3'[WQJ=xf@YhereRi9tOZO$8i)7.Im(W8qLKy.\H21
     C0E7105 KC2022 11 26*2y\xs*b/%kDTp\CyM,@for4explanation3X``]9H?CZr2kvq-+H21
     C0E7105 1C2022 11 27.08954 07 20 13.94 +33 58 25.5    ~BR8M 22.1 VXNEOCP033
     C0E7105 1C2022 11 27.09313 07 20 14.14 +33 58 28.3    ~BR8M 21.9 VXNEOCP033
     C0E7105 1C2022 11 27.09671 07 20 14.35 +33 58 30.7    ~BR8M 21.9 VXNEOCP033

Station data:
(033) Karl Schwarzschild Observatory, Tautenburg  (N50.980137 E11.711240)
   Germany.  Observers S. Melnikov, C. Hoegner, B. Stecklum. Measurer B.
   Stecklum. 1.34-m f/3 Schmidt + CCD.
(291) LPL/Spacewatch II  (N31.961669 W111.599905)  US/Arizona.  Observers J.
   V. Scotti, R. S. McMillan. 1.8-m f/2.7 reflector + CCD.
(H21) Astronomical Research Observatory, Westfield  (N39.483054 W87.968270)
   US/Illinois.  Observer R. Holmes. Measurers S. Foglia, L. Buzzi, T.
   Linder, R. Holmes. 0.76-m f/3.0 astrograph + CCD0.81-m f/4.0 astrograph +
   CCD0.61-m f/4.5 astrograph + CCD0.40-m f/5.32 astrograph + CCD.
(V00) Kitt Peak-Bok  (N31.963125 W111.600190)  US/Arizona.  Observers T. A.
   Pruyne, B. M. Africano, E. J. Christensen, G. A. Farneth, D. C. Fuls, A.
   R. Gibbs, A. D. Grauer, H. Gröller, J. A. Johnson, R. A. Kowalski, S. M.
   Larson, G. J. Leonard, D. Rankin, R. L. Seaman, F. C. Shelly, K. W.
   Wierzchoś. 2.25-m reflector + CCD.
(V06) Catalina Sky Survey-Kuiper  (N32.416844 W110.732550)  US/Arizona.
   Observers T. A. Pruyne, B. M. Africano, E. J. Christensen, G. A. Farneth,
   D. C. Fuls, A. R. Gibbs, A. D. Grauer, H. Gröller, J. A. Johnson, R. A.
   Kowalski, S. M. Larson, G. J. Leonard, D. Rankin, R. L. Seaman, F. C.
   Shelly, K. W. Wierzchoś. 1.55-m reflector + CCD.

Orbital elements:  C0E7105
   Perihelion 2022 Oct 27.13602 +/- 0.184 TT =  3:15:51 (JD 2459879.63602)
Epoch 2022 Nov 27.0 TT = JDT 2459910.5   Earth MOID: 0.2348   Ma: 0.0395
M   8.88103579 +/- 0.19             (J2000 ecliptic)          AutoNEOCP
n   0.28774754 +/- 0.00811          Peri.   13.39820 +/- 0.33
a   2.27227887 +/- 0.0427           Node    35.25103 +/- 0.22
e   0.4611224 +/- 0.00949           Incl.    5.05856 +/- 0.051
P   3.43                   H 22.8   G  0.15   U  9.5
q 1.22448000 +/- 0.00175    Q 3.32007774 +/- 0.0839
From 20 observations 2022 Nov. 23-27; mean residual 0".20
Residuals in arcseconds: 
221123 V00  .17-  .14+    221124 291  .37+  .02+    221126 H21  .02-  .01-    
221123 V00  .32-  .46-    221124 291  .01+  .14-    221126 H21  .32-  .34+    
221123 V00  .25+  .14+    221124 291  .04+  .09-    221126 H21  .08-  .11+    
221123 V00  .06+  .14+    221126 V06  .20-  .10-    221127 033  .21-  .30-    
221123 291  .36-  .04+    221126 V06  .10-  .01-    221127 033  .06+  .06+    
221123 291  .31+  .09+    221126 V06  .02+  .05+    221127 033  .47+  .03+    
221123 291  .08+  .01+    221126 V06  .19+  .10-    

Ephemerides (geocentric):
Date (UTC) HH   RA             Dec           delta  r     elong  mag " sig PA
---- --------  ------------   ------------  ------ ------ -----  --- --------
2022 11 27 13  07 20 39.437   +34 03 39.36  .35431 1.2680 136.7 22.4 .323 156
2022 11 27 14  07 20 41.735   +34 04 07.50  .35433 1.2681 136.7 22.4 .339 156
2022 11 27 15  07 20 44.024   +34 04 35.63  .35434 1.2682 136.7 22.4 .354 156
2022 11 27 16  07 20 46.304   +34 05 03.75  .35436 1.2683 136.7 22.4 .370 156
2022 11 27 17  07 20 48.575   +34 05 31.85  .35438 1.2685 136.8 22.4 .386 156
2022 11 27 18  07 20 50.838   +34 05 59.94  .35440 1.2686 136.8 22.4 .402 157
2022 11 27 19  07 20 53.092   +34 06 28.01  .35442 1.2687 136.8 22.4 .418 157
2022 11 27 20  07 20 55.337   +34 06 56.06  .35443 1.2688 136.9 22.4 .435 157
2022 11 27 21  07 20 57.574   +34 07 24.10  .35445 1.2689 136.9 22.4 .452 157
2022 11 27 22  07 20 59.802   +34 07 52.13  .35447 1.2690 136.9 22.4 .470 157
2022 11 27 23  07 21 02.021   +34 08 20.14  .35449 1.2691 137.0 22.4 .487 157
2022 11 28 00  07 21 04.231   +34 08 48.14  .35451 1.2692 137.0 22.4 .505 157
2022 11 28 01  07 21 06.433   +34 09 16.11  .35453 1.2694 137.0 22.4 .523 157
2022 11 28 02  07 21 08.626   +34 09 44.08  .35455 1.2695 137.1 22.4 .541 157
2022 11 28 03  07 21 10.810   +34 10 12.03  .35457 1.2696 137.1 22.4 .560 157
2022 11 28 04  07 21 12.986   +34 10 39.96  .35459 1.2697 137.1 22.4 .578 157
2022 11 28 05  07 21 15.153   +34 11 07.88  .35461 1.2698 137.2 22.4 .598 157
2022 11 28 06  07 21 17.311   +34 11 35.78  .35462 1.2699 137.2 22.4 .617 157
2022 11 28 07  07 21 19.461   +34 12 03.67  .35464 1.2700 137.2 22.4 .636 157
2022 11 28 08  07 21 21.602   +34 12 31.54  .35466 1.2702 137.3 22.4 .656 157
2022 11 28 09  07 21 23.734   +34 12 59.39  .35468 1.2703 137.3 22.4 .676 157
2022 11 28 10  07 21 25.857   +34 13 27.23  .35470 1.2704 137.3 22.4 .697 157
2022 11 28 11  07 21 27.972   +34 13 55.06  .35473 1.2705 137.4 22.4 .717 157
2022 11 28 12  07 21 30.078   +34 14 22.87  .35475 1.2706 137.4 22.4 .738 157
2022 11 28 13  07 21 32.176   +34 14 50.66  .35477 1.2707 137.4 22.4 .759 157
2022 11 28 14  07 21 34.264   +34 15 18.43  .35479 1.2708 137.5 22.4 .780 157
2022 11 28 15  07 21 36.344   +34 15 46.20  .35481 1.2710 137.5 22.4 .802 157
2022 11 28 16  07 21 38.416   +34 16 13.94  .35483 1.2711 137.5 22.4 .824 157
2022 11 28 17  07 21 40.479   +34 16 41.67  .35485 1.2712 137.5 22.4 .846 157
2022 11 28 18  07 21 42.533   +34 17 09.38  .35487 1.2713 137.6 22.4 .868 157
2022 11 28 19  07 21 44.578   +34 17 37.08  .35489 1.2714 137.6 22.4 .891 157
2022 11 28 20  07 21 46.615   +34 18 04.76  .35491 1.2715 137.6 22.4 .914 157
2022 11 28 21  07 21 48.643   +34 18 32.42  .35494 1.2717 137.7 22.4 .937 157
2022 11 28 22  07 21 50.662   +34 19 00.07  .35496 1.2718 137.7 22.4 .960 157
2022 11 28 23  07 21 52.673   +34 19 27.70  .35498 1.2719 137.7 22.4 .984 157
2022 11 29 00  07 21 54.675   +34 19 55.32  .35500 1.2720 137.8 22.4 1.01 157
2022 11 29 01  07 21 56.669   +34 20 22.92  .35502 1.2721 137.8 22.4 1.03 157
2022 11 29 02  07 21 58.653   +34 20 50.50  .35505 1.2722 137.8 22.4 1.06 157
2022 11 29 03  07 22 00.629   +34 21 18.07  .35507 1.2724 137.9 22.4 1.08 157
2022 11 29 04  07 22 02.597   +34 21 45.62  .35509 1.2725 137.9 22.4 1.11 157
2022 11 29 05  07 22 04.556   +34 22 13.15  .35511 1.2726 137.9 22.4 1.13 157
2022 11 29 06  07 22 06.506   +34 22 40.67  .35514 1.2727 138.0 22.4 1.16 157
2022 11 29 07  07 22 08.448   +34 23 08.17  .35516 1.2728 138.0 22.4 1.18 157
2022 11 29 08  07 22 10.381   +34 23 35.66  .35518 1.2729 138.0 22.4 1.21 157
2022 11 29 09  07 22 12.305   +34 24 03.12  .35521 1.2731 138.1 22.4 1.23 157
2022 11 29 10  07 22 14.220   +34 24 30.57  .35523 1.2732 138.1 22.4 1.26 157
2022 11 29 11  07 22 16.128   +34 24 58.01  .35525 1.2733 138.1 22.4 1.29 157
2022 11 29 12  07 22 18.026   +34 25 25.43  .35528 1.2734 138.2 22.4 1.31 157